Weather History for Idaho Falls, ID

Change the Weather History Date:

Thursday, April 3, 2014

  Actual Average Record
Temperature  
Mean Temperature 38 °F 42 °F  
Max Temperature 47 °F 54 °F 74 °F (1992)
Min Temperature 29 °F 30 °F 15 °F (1970)
Degree Days  
Heating Degree Days 27 23  
Month to date heating degree days 83 71  
Since 1 July heating degree days 6392 6775  
Cooling Degree Days 0 0  
Month to date cooling degree days 0 0  
Year to date cooling degree days 0 0  
Moisture  
Dew Point 28 °F    
Average Humidity 69    
Maximum Humidity 100    
Minimum Humidity 37    
Precipitation  
Precipitation T in 0.03 in 0.17 in (1988)
Month to date precipitation 0.03 0.09  
Year to date precipitation 2.32 2.30  
Sea Level Pressure  
Sea Level Pressure 30.05 in    
Wind  
Wind Speed 4 mph (North)    
Max Wind Speed 12 mph    
Max Gust Speed 14 mph    
Visibility 6 miles    
Events Fog    
T = Trace of Precipitation, MM = Missing Value Source: NWS Daily Summary

Daily Weather History Graph

Daily Weather History Graph

Search for Another Location

Airport:

Trip Planner

Search our weather history database for the weather conditions in past years. The results will help you decide how hot, cold, wet, or windy it might be!

Date:

Astronomy

Apr. 03, 2014 Rise Set
Actual Time 7:06 AM MDT 7:57 PM MDT
Civil Twilight 6:37 AM MDT 8:26 PM MDT
Nautical Twilight 6:02 AM MDT 9:01 PM MDT
Astronomical Twilight 5:26 AM MDT 9:37 PM MDT
Moon 9:32 AM MDT (4/3) No Moon Set
Length of Visible Light 13h 49m
Length of Day
12h 51m
Waxing Crescent, 18% of the Moon is Illuminated
Apr 3
Waxing Crescent
Apr 7
First Quarter
Apr 15
Full
Apr 22
Last Quarter
Apr 29
New

Hourly Weather History & Observations

Time (MDT) Temp. Windchill Dew Point Humidity Pressure Visibility Wind Dir Wind Speed Gust Speed Precip Events Conditions
12:53 AM 36.0 °F 32.1 °F 30.0 °F 79% 29.96 in 10.0 mi East 4.6 mph - N/A   Overcast
1:53 AM 34.0 °F 29.8 °F 30.9 °F 89% 29.97 in 10.0 mi SE 4.6 mph - N/A   Overcast
2:53 AM 32.0 °F 28.7 °F 30.0 °F 92% 29.98 in 10.0 mi North 3.5 mph - N/A   Scattered Clouds
3:40 AM 30.9 °F 26.2 °F 28.9 °F 92% 29.95 in 10.0 mi North 4.6 mph - N/A   Mostly Cloudy
3:53 AM 32.0 °F 27.5 °F 30.0 °F 92% 29.99 in 10.0 mi North 4.6 mph - N/A   Mostly Cloudy
4:53 AM 32.0 °F 27.5 °F 30.0 °F 92% 30.00 in 10.0 mi North 4.6 mph - N/A   Overcast
5:11 AM 30.9 °F 24.3 °F 28.9 °F 92% 29.97 in 1.5 mi NNW 6.9 mph - N/A   Mostly Cloudy
5:18 AM 30.0 °F 23.2 °F 28.9 °F 96% 29.97 in 0.2 mi NNW 6.9 mph - N/A Fog Light Freezing Fog
5:25 AM 30.0 °F 24.1 °F 30.0 °F 100% 29.97 in 0.2 mi North 5.8 mph - N/A Fog Light Freezing Fog
5:53 AM 30.0 °F 25.2 °F 28.9 °F 96% 30.03 in 0.2 mi North 4.6 mph - N/A Fog Light Freezing Fog
6:49 AM 30.2 °F 26.7 °F 30.2 °F 100% 30.00 in 0.8 mi NE 3.5 mph - N/A   Mist
6:53 AM 30.9 °F 27.5 °F 30.0 °F 96% 30.05 in 1.0 mi NNE 3.5 mph - N/A   Mist
7:05 AM 30.9 °F 26.2 °F 30.0 °F 96% 30.01 in 2.0 mi North 4.6 mph - N/A   Overcast
7:22 AM 30.9 °F 25.2 °F 28.9 °F 92% 30.02 in 1.0 mi North 5.8 mph - N/A   Overcast
7:34 AM 30.0 °F 25.2 °F 28.9 °F 96% 30.02 in 0.8 mi North 4.6 mph - N/A   Overcast
7:53 AM 30.0 °F - 30.0 °F 100% 30.09 in 0.8 mi Calm Calm - N/A   Overcast
8:53 AM 30.0 °F - 30.0 °F 100% 30.11 in 0.5 mi Calm Calm - N/A Fog Light Freezing Fog
9:40 AM 30.9 °F 27.5 °F 30.0 °F 96% 30.06 in 2.0 mi SE 3.5 mph - N/A   Overcast
9:53 AM 30.9 °F - 30.0 °F 96% 30.12 in 3.0 mi Calm Calm - N/A   Overcast
9:56 AM 30.9 °F 27.5 °F 30.0 °F 96% 30.07 in 2.5 mi East 3.5 mph - N/A   Overcast
10:36 AM 32.0 °F - 30.0 °F 92% 30.07 in 3.0 mi Calm Calm - N/A   Overcast
10:53 AM 33.1 °F - 30.9 °F 92% 30.13 in 5.0 mi Calm Calm - N/A   Overcast
11:53 AM 37.0 °F 34.5 °F 32.0 °F 82% 30.12 in 10.0 mi Variable 3.5 mph - N/A   Mostly Cloudy
12:53 PM 39.9 °F 35.1 °F 30.0 °F 68% 30.11 in 10.0 mi SW 6.9 mph - N/A   Mostly Cloudy
1:53 PM 42.1 °F - 28.0 °F 58% 30.10 in 10.0 mi Calm Calm - N/A   Mostly Cloudy
2:53 PM 46.0 °F 43.9 °F 27.0 °F 47% 30.09 in 10.0 mi Variable 4.6 mph - N/A   Mostly Cloudy
3:53 PM 45.0 °F 41.2 °F 28.9 °F 53% 30.08 in 10.0 mi West 6.9 mph - 0.00 in   Overcast
3:55 PM 45.0 °F 42.6 °F 28.0 °F 52% 30.05 in 10.0 mi West 4.6 mph - N/A   Mostly Cloudy
4:53 PM 44.1 °F 42.5 °F 25.0 °F 47% 30.07 in 10.0 mi NNW 3.5 mph - N/A   Mostly Cloudy
5:53 PM 46.0 °F 42.5 °F 24.1 °F 42% 30.06 in 10.0 mi WSW 6.9 mph - N/A   Scattered Clouds
6:53 PM 46.0 °F 44.8 °F 21.9 °F 39% 30.06 in 10.0 mi SSW 3.5 mph - N/A   Scattered Clouds
7:53 PM 44.1 °F 40.8 °F 21.9 °F 42% 30.07 in 10.0 mi South 5.8 mph - N/A   Clear
9:53 PM 37.9 °F 33.5 °F 25.0 °F 60% 30.10 in 10.0 mi SSE 5.8 mph - N/A   Clear
10:53 PM 37.0 °F 30.4 °F 24.1 °F 59% 30.10 in 10.0 mi South 9.2 mph - N/A   Clear
11:53 PM 34.0 °F 31.0 °F 25.0 °F 70% 30.09 in 10.0 mi South 3.5 mph - N/A   Clear